Location: Aulnoy
(48.8410°N, 3.0967°E)
Time: 01:02:05
(UTC+00:00)

Envisat - Pass Details

Date: 04 March 2024
Orbit: 762 x 764 km, 98.3° (Epoch: 12 April)

Event Time Altitude Azimuth Distance (km) Brightness Sun altitude
Rises 05:06:52 0° 1° (N) 3,242 6.3 -13.3°
Reaches altitude 10° 05:10:04 10° 339° (NNW) 2,311 5.3 -12.8°
Maximum altitude 05:12:56 15° 305° (NW) 1,960 4.7 -12.3°
Enters shadow 05:14:07 14° 289° (WNW) 2,023 4.6 -12.1°
